User: anonymous   Login
Location: Unspecified
(35.6961°N, 0.0000°E)
Time: 09:58:34
(UTC+00:00)
Language:

Transit 4A - Orbit

View from above orbital plane
View from above orbital plane
View from above satellite
View from above satellite

Ground track
Ground track

The orbit data is extracted from the following two-line orbital elements,

1   116U 61015A   19143.90602615 -.00000025 +00000-0 +39470-4 0  9993
2   116 066.8103 082.9368 0082742 281.6943 077.4861 13.91752924937472
Epoch (UTC): 23 May 2019 21:44:40
Eccentricity: 0.0082742
inclination: 66.8103°
perigee height: 862 km
apogee height: 983 km
right ascension of ascending node: 82.9368°
argument of perigee: 281.6943°
revolutions per day: 13.91752924
mean anomaly at epoch: 77.4861°
orbit number at epoch: 93747

The dashed part of the orbit path shows where the satellite is in the earth's shadow,  

DLR